Flag for Thailand Weather past 2 weeks in Khon Kaen, Thailand

Now
79 °F

Broken clouds.


Feels Like: 82 °F
Forecast: 73 / 86 °F
Wind: 3 mph from East

Location: Khon Kaen Airport

Current Time: Sep 2, 2014 at 6:16:27 PM

Latest Report: Sep 2, 2014 at 5:00 PM


Visibility: N/A

Pressure: 29.71 "Hg

Humidity: 89%

Dew point: 75 °F

Location of Khon KaenLocation

Historic Weather in Khon Kaen — Graph

°F

Khon Kaen temperature yesterday

Maximum temperature yesterday: 86 °F (at 12:00 PM)
Minimum temperature yesterday: 73 °F (at 5:00 AM)
Average temperature yesterday: 79 °F

Past Weeks' High & Low Weather Summary

 TemperatureHumidityPressure
High95 °F (Aug 18, 5:00 PM)100% (Aug 27, 3:00 AM)29.89 "Hg (Aug 27, 3:00 AM)
Low73 °F (Aug 19, 5:00 PM)47% (Aug 24, 3:00 PM)29.65 "Hg (Aug 25, 4:00 PM)
Average81 °F82%29.77 "Hg
* Reported Aug 18 5:00 PM — Sep 2 5:00 PM, Khon Kaen, Weather by CustomWeather, © 2014

Note: Actual official high and low records may vary slightly from our data, if they occured in-between our weather recording intervals... More about our weather records

Advertising

Khon Kaen weather history for previous 24 hours

 ConditionsComfort  
Time TempWeatherWind HumidityBarometerVisibility
5:00 PM
Sep 2
79 °FBroken clouds.3 mph89%29.71 "HgN/A
4:00 PM79 °FLight rain. Partly sunny.3 mph89%29.71 "HgN/A
3:00 PM79 °FRain. Partly sunny.8 mph84%29.71 "HgN/A
2:00 PM84 °FPartly sunny.7 mph70%29.74 "HgN/A
1:00 PM84 °FBroken clouds.7 mph70%29.77 "HgN/A
11:00 AM79 °FMostly cloudy.5 mph84%29.83 "HgN/A
10:00 AM77 °FLight rain. Mostly cloudy.5 mph89%29.83 "HgN/A
9:00 AM77 °FPartly sunny.5 mph94%29.80 "HgN/A
8:00 AM77 °FMostly cloudy.5 mph89%29.80 "HgN/A
7:00 AM75 °FMostly cloudy.3 mph94%29.77 "Hg5 mi
6:00 AM75 °FCloudy.2 mph94%29.74 "Hg4 mi
4:00 AM75 °FOvercast.2 mph94%29.71 "HgN/A
3:00 AM75 °FRain. Mostly cloudy.3 mph94%29.74 "Hg3 mi
2:00 AM75 °FPassing clouds.3 mph94%29.74 "HgN/A
12:00 AM77 °FPartly cloudy.3 mph89%29.77 "HgN/A
11:00 PM
Sep 1
77 °FPartly cloudy.3 mph89%29.77 "HgN/A
10:00 PM77 °FOvercast.2 mph94%29.77 "HgN/A
9:00 PM77 °FPartly cloudy.3 mph94%29.77 "HgN/A
8:00 PM79 °FOvercast.2 mph89%29.74 "HgN/A
7:00 PM79 °FMostly cloudy.1 mph89%29.71 "HgN/A
6:00 PM79 °FMostly cloudy.2 mph89%29.68 "HgN/A
Weather by CustomWeather, © 2014

See weather overviewHow to use our weather pages